This is the latest recevied weather packets stored in our database for station/object W3JGB. If no packets are shown the sender has not sent any weather packets the latest 10 day(s).
| Time | Temp. | Humidity | Pressure | Rain* | Wind** | Luminosity | Snow |
|---|---|---|---|---|---|---|---|
| 1777788035 | 5.56° C | 74% | 1013.1 hPa | 0 mm | - | 0 W/m² | - |
| 1777787730 | 5.56° C | 68% | 1013 hPa | 0 mm | - | 0 W/m² | - |
| 1777787426 | 5.56° C | 64% | 1013.1 hPa | 0 mm | - | 0 W/m² | - |
| 1777787122 | 5.56° C | 62% | 1013.2 hPa | 0 mm | - | 0 W/m² | - |
| 1777786820 | 6.11° C | 68% | 1013.1 hPa | 0 mm | - | 0 W/m² | - |
| 1777786518 | 5.56° C | 61% | 1013.1 hPa | 0 mm | - | 0 W/m² | - |
| 1777786215 | 5.56° C | 64% | 1013.4 hPa | 0 mm | - | 0 W/m² | - |
| 1777785912 | 5° C | 68% | 1013.4 hPa | 0 mm | - | 0 W/m² | - |
| 1777785608 | 5.56° C | 72% | 1013.2 hPa | 0 mm | - | 0 W/m² | - |
| 1777785303 | 5.56° C | 75% | 1013.3 hPa | 0 mm | - | 0 W/m² | - |
| 1777785001 | 5.56° C | 78% | 1013.3 hPa | 0 mm | - | 0 W/m² | - |
| 1777784697 | 5.56° C | 74% | 1013.5 hPa | 0 mm | - | 0 W/m² | - |
| 1777784395 | 5.56° C | 75% | 1013.6 hPa | 0 mm | - | 0 W/m² | - |
| 1777784092 | 5.56° C | 73% | 1013.4 hPa | 0 mm | - | 0 W/m² | - |
| 1777783789 | 5.56° C | 76% | 1013.4 hPa | 0 mm | - | 0 W/m² | - |
| 1777783485 | 5.56° C | 74% | 1013.5 hPa | 0 mm | - | 0 W/m² | - |
| 1777783183 | 6.11° C | 77% | 1013.7 hPa | 0 mm | - | 0 W/m² | - |
| 1777782879 | 6.11° C | 72% | 1013.6 hPa | 0 mm | - | 0 W/m² | - |
| 1777782575 | 5.56° C | 69% | 1013.6 hPa | 0 mm | - | 0 W/m² | - |
| 1777782272 | 6.11° C | 73% | 1013.6 hPa | 0 mm | - | 0 W/m² | - |
| 1777781969 | 6.11° C | 77% | 1013.8 hPa | 0 mm | - | 0 W/m² | - |
| 1777781666 | 6.11° C | 74% | 1013.6 hPa | 0 mm | - | 0 W/m² | - |
| 1777781363 | 6.11° C | 73% | 1013.6 hPa | 0 mm | - | 0 W/m² | - |
| 1777781060 | 6.11° C | 74% | 1013.7 hPa | 0 mm | - | 0 W/m² | - |
| 1777780758 | 6.11° C | 75% | 1013.7 hPa | 0 mm | - | 0 W/m² | - |
* Rain latest hour (hover to see other rain measurements)
** Current wind speed in m/s (hover to see current wind gust speed)